Flag for U.S.A. Weather past 2 weeks in Gainesville, Florida, U.S.A.

Now
64 °F

Mostly cloudy.


Feels Like: 64 °F
Forecast: 62 / 72 °F
Wind: 10 mph from Northeast

Location: Gainesville Regional Airport


UV Index: 0 (Low)

Visibility: 10 mi


Pressure: 30.22 "Hg

Humidity: 87%

Dew point: 60 °F

Location of GainesvilleLocation

Historic Weather in Gainesville

°F

Gainesville temperature yesterday

Maximum temperature yesterday: 68 °F (at 1:53 PM)
Minimum temperature yesterday: 42 °F (at 6:53 AM)
Average temperature yesterday: 55 °F

Past Weeks' High & Low Weather Summary

 TemperatureHumidityPressure
High86 °F (Apr 7, 1:53 PM)100% (Apr 4, 7:53 AM)30.31 "Hg (Apr 4, 7:53 AM)
Low42 °F (Apr 16, 6:53 AM)32% (Apr 10, 3:53 PM)29.69 "Hg (Apr 8, 4:53 AM)
Average67 °F73%30.04 "Hg
* Reported Apr 2 8:53 PM — Apr 17 8:53 PM, Gainesville, Weather by CustomWeather, © 2014

Note: Actual official high and low records may vary slightly from our data, if they occured in-between our weather recording intervals... More about our weather records

Advertising

Historic Weather Conditions — Data for Previous 24 hours

 ConditionsComfort  
Time TempWeatherWind HumidityBarometerVisibility
8:53 PM
Apr 17
65 °FCloudy.9 mph85%30.22 "Hg10 mi
7:53 PM68 °FMostly cloudy.10 mph76%30.21 "Hg10 mi
7:00 PM70 °FCloudy.12 mph71%30.20 "Hg10 mi
5:53 PM72 °FBroken clouds.14 mph66%30.19 "Hg10 mi
5:00 PM73 °FOvercast.17 mph64%30.19 "Hg10 mi
3:53 PM72 °FMore clouds than sun.15 mph68%30.19 "Hg10 mi
3:00 PM73 °FOvercast.20 mph66%30.23 "Hg10 mi
1:53 PM74 °FPartly sunny.14 mph64%30.24 "Hg10 mi
1:03 PM73 °FPartly sunny.15 mph69%30.26 "Hg10 mi
11:53 AM70 °FMostly cloudy.13 mph73%30.28 "Hg9 mi
10:53 AM68 °FPartly sunny.16 mph76%30.27 "Hg9 mi
9:53 AM66 °FPartly sunny.15 mph81%30.25 "Hg7 mi
8:53 AM61 °FOvercast.13 mph87%30.24 "Hg7 mi
7:53 AM56 °FFog.8 mph93%30.22 "Hg6 mi
6:53 AM53 °FPassing clouds.5 mph96%30.21 "Hg8 mi
5:53 AM53 °FOvercast.6 mph93%30.19 "Hg8 mi
4:53 AM54 °FOvercast.8 mph93%30.19 "Hg8 mi
3:53 AM53 °FOvercast.9 mph93%30.18 "Hg9 mi
2:53 AM53 °FOvercast.9 mph89%30.19 "Hg9 mi
1:53 AM53 °FOvercast.6 mph86%30.21 "Hg10 mi
12:53 AM53 °FMostly cloudy.8 mph83%30.21 "Hg10 mi
12:01 AM53 °FMostly cloudy.5 mph83%30.23 "Hg10 mi
10:53 PM
Apr 16
54 °FOvercast.7 mph80%30.22 "Hg10 mi
Weather by CustomWeather, © 2014

See weather overview